Date,Time,Wetness (Wet Dry or Ice),Wind Speed (m/s),Temperature (C),Humidity (%),Pressure (mb),Radiation (W/m^2)
2020-05-10,22:05:00,DRY,7.50,6.00,77.5,776.00,1.1
2020-05-10,22:10:00,DRY,6.83,5.97,78.0,776.00,1.4
2020-05-10,22:15:00,DRY,6.95,5.90,80.0,776.00,1.2
2020-05-10,22:20:00,DRY,7.07,5.80,79.7,776.00,1.4
2020-05-10,22:25:00,DRY,6.35,5.85,80.0,776.00,1.5
2020-05-10,22:30:00,DRY,7.13,5.97,79.7,776.33,1.2
2020-05-10,22:35:00,DRY,6.05,5.80,81.0,776.00,1.7
2020-05-10,22:40:00,DRY,7.57,6.10,72.0,776.00,1.3
2020-05-10,22:45:00,DRY,6.25,6.10,72.0,776.00,1.1
2020-05-10,22:50:00,DRY,8.17,5.87,79.3,776.00,1.2
2020-05-10,22:55:00,DRY,6.60,5.85,79.5,776.00,1.4
2020-05-10,23:00:00,DRY,5.90,5.70,82.3,776.00,1.5
2020-05-10,23:05:00,DRY,7.95,5.60,84.0,776.00,1.4
2020-05-10,23:10:00,DRY,7.03,5.70,83.7,776.00,1.3
2020-05-10,23:15:00,DRY,7.80,5.70,83.5,776.00,1.8
2020-05-10,23:20:00,DRY,7.33,5.60,85.7,776.00,1.7
2020-05-10,23:25:00,DRY,7.80,5.60,86.5,776.00,1.6
2020-05-10,23:30:00,DRY,6.53,5.50,86.3,776.00,1.6
2020-05-10,23:35:00,DRY,7.25,5.55,87.0,776.00,1.7
2020-05-10,23:40:00,DRY,7.50,5.53,87.0,776.00,1.3
2020-05-10,23:45:00,DRY,6.05,5.50,87.5,776.00,1.2
2020-05-10,23:50:00,DRY,8.43,5.57,85.0,776.00,1.5
2020-05-10,23:55:00,DRY,8.20,5.95,76.5,776.00,1.1
2020-05-11,00:00:00,DRY,5.90,5.87,76.0,776.00,1.1
2020-05-11,00:05:00,DRY,6.85,5.75,71.5,776.00,1.1
2020-05-11,00:10:00,DRY,5.65,5.75,74.5,776.00,1.8
2020-05-11,00:15:00,DRY,5.95,5.75,79.0,776.00,1.0
2020-05-11,00:20:00,DRY,6.27,5.80,78.7,776.00,1.2
2020-05-11,00:25:00,DRY,6.00,5.65,80.5,776.00,1.6
2020-05-11,00:30:00,DRY,5.63,5.53,79.0,776.00,1.1
2020-05-11,00:35:00,DRY,5.10,5.65,76.5,776.00,1.0
2020-05-11,00:40:00,DRY,5.53,5.83,69.0,776.00,1.6
2020-05-11,00:45:00,DRY,5.25,6.35,59.0,776.00,1.1
2020-05-11,00:50:00,DRY,4.67,6.20,62.7,776.00,1.4
2020-05-11,00:55:00,DRY,4.95,6.05,65.5,776.00,1.2
2020-05-11,01:00:00,DRY,4.93,6.73,56.0,776.00,1.2
2020-05-11,01:05:00,DRY,6.15,6.70,56.0,776.00,1.1
2020-05-11,01:10:00,DRY,5.07,6.97,52.3,776.00,1.0
2020-05-11,01:15:00,DRY,4.00,7.25,45.0,776.00,1.2
2020-05-11,01:20:00,DRY,4.53,7.27,46.0,776.00,2.4
2020-05-11,01:25:00,DRY,4.30,7.15,45.5,776.00,2.2
2020-05-11,01:30:00,DRY,5.33,7.03,41.0,776.00,1.3
2020-05-11,01:35:00,DRY,5.30,7.20,38.5,776.00,1.2
2020-05-11,01:40:00,DRY,4.93,7.17,38.3,776.00,1.2
2020-05-11,01:45:00,DRY,5.60,7.20,38.0,776.00,1.0
2020-05-11,01:50:00,DRY,4.20,7.43,34.0,776.00,1.2
2020-05-11,01:55:00,DRY,4.75,7.55,33.0,775.50,1.3
2020-05-11,02:00:00,DRY,4.53,7.53,32.7,775.33,1.1
2020-05-11,02:05:00,DRY,4.10,7.40,33.0,775.00,1.3
2020-05-11,02:10:00,DRY,3.97,7.47,33.7,775.00,2.0
2020-05-11,02:15:00,DRY,4.25,7.35,35.0,775.00,1.4
2020-05-11,02:20:00,DRY,4.07,7.57,34.0,775.00,0.8
2020-05-11,02:25:00,DRY,3.95,7.65,33.5,775.00,1.1
2020-05-11,02:30:00,DRY,3.93,7.53,33.7,775.00,1.6
2020-05-11,02:35:00,DRY,3.55,7.60,32.0,775.00,1.1
2020-05-11,02:40:00,DRY,3.73,7.83,31.7,775.00,1.1
2020-05-11,02:45:00,DRY,3.55,7.90,30.0,775.00,1.1
2020-05-11,02:50:00,DRY,3.67,7.77,30.7,775.00,1.3
2020-05-11,02:55:00,DRY,4.05,7.80,30.5,775.00,1.2
2020-05-11,03:00:00,DRY,3.93,7.93,30.0,775.00,1.6
2020-05-11,03:05:00,DRY,3.20,8.10,29.0,775.00,0.6
2020-05-11,03:10:00,DRY,3.00,8.23,28.0,775.00,0.8
2020-05-11,03:15:00,DRY,4.25,8.10,28.5,775.00,1.2
2020-05-11,03:20:00,DRY,4.23,8.17,26.3,775.00,1.1
2020-05-11,03:25:00,DRY,3.85,8.25,25.0,775.00,1.1
2020-05-11,03:30:00,DRY,4.30,8.30,24.7,775.00,1.1
2020-05-11,03:35:00,DRY,4.50,8.40,22.5,775.00,0.4
2020-05-11,03:40:00,DRY,4.10,8.07,20.3,775.00,1.2
2020-05-11,03:45:00,DRY,3.60,8.00,20.0,775.00,0.6
2020-05-11,03:50:00,DRY,3.40,7.97,20.0,775.00,1.2
2020-05-11,03:55:00,DRY,3.65,8.00,20.0,775.00,1.0
2020-05-11,04:00:00,DRY,4.67,8.07,19.7,775.00,1.0
2020-05-11,04:05:00,DRY,4.85,8.15,19.5,775.00,1.1
2020-05-11,04:10:00,DRY,5.30,8.33,20.7,775.00,1.2
2020-05-11,04:15:00,DRY,6.05,8.55,21.0,775.00,1.0
2020-05-11,04:20:00,DRY,4.93,8.33,19.7,775.00,1.9
2020-05-11,04:25:00,DRY,4.40,8.30,19.0,775.00,1.2
2020-05-11,04:30:00,DRY,5.20,8.17,19.3,775.00,1.1
2020-05-11,04:35:00,DRY,4.25,8.15,19.0,775.00,0.9
2020-05-11,04:40:00,DRY,4.77,7.97,18.0,775.00,1.1
2020-05-11,04:45:00,DRY,3.70,7.95,18.0,775.00,0.8
2020-05-11,04:50:00,DRY,3.90,8.00,17.7,774.33,1.2
2020-05-11,04:55:00,DRY,3.60,8.05,17.5,774.00,1.1
2020-05-11,05:00:00,DRY,3.23,7.90,18.3,774.33,1.5
2020-05-11,05:05:00,DRY,3.75,7.95,19.0,775.00,2.0
2020-05-11,05:10:00,DRY,4.20,8.03,18.3,774.00,1.0
2020-05-11,05:15:00,DRY,3.75,8.05,17.0,774.50,2.5
2020-05-11,05:20:00,DRY,4.10,7.90,17.3,774.00,1.1
2020-05-11,05:25:00,DRY,4.70,8.00,17.0,774.00,1.4
2020-05-11,05:30:00,DRY,5.47,7.97,18.0,774.00,1.0
2020-05-11,05:35:00,DRY,6.35,7.95,18.0,774.00,1.1
2020-05-11,05:40:00,DRY,5.03,7.87,19.0,774.00,1.2
2020-05-11,05:45:00,DRY,6.60,7.85,19.0,774.00,1.1
2020-05-11,05:50:00,DRY,6.47,7.87,18.7,774.00,1.0
2020-05-11,05:55:00,DRY,5.70,7.80,21.0,774.00,1.1
2020-05-11,06:00:00,DRY,5.40,7.73,22.3,774.00,0.8
2020-05-11,06:05:00,DRY,4.40,7.60,26.5,774.00,1.6
2020-05-11,06:10:00,DRY,4.87,7.53,27.0,774.00,2.2
2020-05-11,06:15:00,DRY,4.10,7.30,23.5,774.00,3.6
2020-05-11,06:20:00,DRY,3.60,7.47,30.3,774.00,6.5
2020-05-11,06:25:00,DRY,4.35,7.65,29.5,774.00,9.8
2020-05-11,06:30:00,DRY,3.97,7.90,25.0,774.00,18.8
2020-05-11,06:35:00,DRY,3.80,8.00,29.0,774.00,34.6
2020-05-11,06:40:00,DRY,4.30,8.00,28.3,774.00,57.4
2020-05-11,06:45:00,DRY,4.70,8.30,24.5,774.00,80.0
2020-05-11,06:50:00,DRY,4.13,8.37,25.3,774.00,103.9
2020-05-11,06:55:00,DRY,4.65,8.40,26.0,774.00,123.6
2020-05-11,07:00:00,DRY,5.57,8.50,26.0,774.00,141.6
2020-05-11,07:05:00,DRY,4.80,8.75,23.5,774.00,164.1
2020-05-11,07:10:00,DRY,5.97,8.67,24.3,774.00,186.0
2020-05-11,07:15:00,DRY,4.75,8.45,26.5,774.00,208.4
2020-05-11,07:20:00,DRY,4.37,8.43,27.7,774.00,231.0
2020-05-11,07:25:00,DRY,1.60,8.60,24.0,774.00,260.2
2020-05-11,07:30:00,DRY,3.40,8.67,25.3,774.00,277.7
2020-05-11,07:35:00,DRY,4.25,8.95,23.5,774.00,300.1
2020-05-11,07:40:00,DRY,2.50,9.30,23.0,774.33,322.9
2020-05-11,07:45:00,DRY,4.00,9.35,23.0,774.00,345.9
2020-05-11,07:50:00,DRY,1.30,9.37,23.3,774.33,368.4
2020-05-11,07:55:00,DRY,2.90,9.05,27.5,775.00,391.9
2020-05-11,08:00:00,DRY,3.70,8.60,31.7,774.00,413.9
2020-05-11,08:05:00,DRY,2.45,8.45,38.0,774.00,435.2
2020-05-11,08:10:00,DRY,4.97,8.47,40.3,774.00,458.2
2020-05-11,08:15:00,DRY,3.45,8.45,38.5,774.50,479.4
2020-05-11,08:20:00,DRY,4.93,8.10,39.3,774.33,501.1
2020-05-11,08:25:00,DRY,5.20,8.35,40.5,774.50,523.8
2020-05-11,08:30:00,DRY,5.10,8.13,41.0,774.67,545.9
2020-05-11,08:35:00,DRY,5.80,8.60,42.5,774.50,567.5
2020-05-11,08:40:00,DRY,4.53,8.40,41.3,775.00,589.5
2020-05-11,08:45:00,DRY,6.40,8.75,43.0,774.50,610.0
2020-05-11,08:50:00,DRY,6.60,8.83,45.0,775.00,631.3
2020-05-11,08:55:00,DRY,5.40,8.40,46.5,775.00,650.4
2020-05-11,09:00:00,DRY,4.57,8.70,46.3,775.00,671.7
2020-05-11,09:05:00,DRY,5.00,8.85,46.5,775.00,691.5
2020-05-11,09:10:00,DRY,4.87,9.13,47.7,775.00,709.6
2020-05-11,09:15:00,DRY,4.80,8.95,48.5,775.00,728.6
2020-05-11,09:20:00,DRY,4.73,8.97,47.3,775.00,748.7
2020-05-11,09:25:00,DRY,5.20,8.85,53.0,775.00,767.7
2020-05-11,09:30:00,DRY,4.70,9.03,54.0,775.00,785.9
2020-05-11,09:35:00,DRY,6.15,9.35,53.5,775.00,803.8
2020-05-11,09:40:00,DRY,5.40,9.00,54.0,775.00,821.9
2020-05-11,09:45:00,DRY,4.55,9.50,51.5,775.00,838.8
2020-05-11,09:50:00,DRY,5.20,9.27,55.3,775.00,856.4
2020-05-11,09:55:00,DRY,6.30,9.45,53.5,775.00,872.5
2020-05-11,10:00:00,DRY,3.77,8.93,57.3,775.00,890.5
2020-05-11,10:05:00,DRY,2.60,9.10,56.0,775.00,906.2
2020-05-11,10:10:00,DRY,7.20,9.03,60.7,775.00,920.8
2020-05-11,10:15:00,DRY,5.80,8.65,58.0,775.00,935.7
2020-05-11,10:20:00,DRY,5.43,9.00,58.3,775.00,952.1
2020-05-11,10:25:00,DRY,4.75,9.05,60.0,775.00,965.8
2020-05-11,10:30:00,DRY,5.27,9.23,56.3,775.00,980.2
2020-05-11,10:35:00,DRY,4.85,9.25,57.5,775.00,994.1
2020-05-11,10:40:00,DRY,5.57,9.90,55.3,775.00,1005.9
2020-05-11,10:45:00,DRY,6.45,9.95,58.5,775.00,1020.3
2020-05-11,10:50:00,DRY,5.43,10.13,61.7,775.00,1030.7
2020-05-11,10:55:00,DRY,4.95,9.95,57.0,775.00,1043.1
2020-05-11,11:00:00,DRY,4.30,9.70,61.0,775.00,1055.0
2020-05-11,11:05:00,DRY,5.15,9.65,63.5,775.00,1064.2
2020-05-11,11:10:00,DRY,5.60,9.73,61.7,775.00,1076.0
2020-05-11,11:15:00,DRY,4.95,9.90,63.0,775.00,1085.8
2020-05-11,11:20:00,DRY,4.00,10.03,53.7,775.00,1096.5
2020-05-11,11:25:00,DRY,5.55,10.00,55.0,775.00,1104.8
2020-05-11,11:30:00,DRY,5.43,10.20,58.3,775.00,1112.9
2020-05-11,11:35:00,DRY,4.85,10.15,48.5,775.00,1120.0
2020-05-11,11:40:00,DRY,6.30,10.50,46.7,775.00,1130.2
2020-05-11,11:45:00,DRY,4.65,10.15,42.0,775.00,1136.2
2020-05-11,11:50:00,DRY,6.77,10.50,44.0,775.00,1143.1
2020-05-11,11:55:00,DRY,5.60,10.75,49.5,775.00,1148.2
2020-05-11,12:00:00,DRY,6.67,10.77,47.7,775.00,1155.7
2020-05-11,12:05:00,DRY,6.15,10.90,49.5,775.00,1161.1
2020-05-11,12:10:00,DRY,5.17,11.10,48.3,775.00,1165.8
2020-05-11,12:15:00,DRY,5.95,10.95,37.0,775.00,1171.1
2020-05-11,12:20:00,DRY,7.50,11.00,44.3,775.00,1176.1
2020-05-11,12:25:00,DRY,4.35,10.60,46.0,775.00,1180.2
2020-05-11,12:30:00,DRY,6.77,10.97,51.3,775.00,1181.3
2020-05-11,12:35:00,DRY,9.00,10.85,44.5,775.00,1184.7
2020-05-11,12:40:00,DRY,5.23,11.30,54.0,775.00,1186.1
2020-05-11,12:45:00,DRY,6.15,10.80,48.5,775.00,1189.0
2020-05-11,12:50:00,DRY,5.47,10.17,53.3,775.00,1191.1
2020-05-11,12:55:00,DRY,7.35,10.90,54.0,775.00,1193.6
2020-05-11,13:00:00,DRY,5.07,11.23,48.0,775.00,1195.8
2020-05-11,13:05:00,DRY,5.00,11.30,52.5,775.00,1196.7
2020-05-11,13:10:00,DRY,5.97,11.03,55.0,775.00,1197.2
2020-05-11,13:15:00,DRY,7.25,10.70,56.0,775.00,1197.5
2020-05-11,13:20:00,DRY,4.20,10.67,49.3,775.00,1197.7
2020-05-11,13:25:00,DRY,5.55,10.50,55.5,775.00,1195.8
2020-05-11,13:30:00,DRY,7.30,10.70,52.0,775.00,1194.2
2020-05-11,13:35:00,DRY,4.60,10.40,57.0,775.00,1191.5
2020-05-11,13:40:00,DRY,3.73,10.63,49.0,775.00,1191.1
2020-05-11,13:45:00,DRY,4.65,10.85,60.5,775.00,1187.5
2020-05-11,13:50:00,DRY,4.83,10.33,56.3,775.00,1183.9
2020-05-11,13:55:00,DRY,7.85,10.60,53.5,775.00,1182.1
2020-05-11,14:00:00,DRY,5.23,9.93,56.0,775.00,1177.5
2020-05-11,14:05:00,DRY,3.85,10.35,54.5,775.00,1172.7
2020-05-11,14:10:00,DRY,5.00,10.23,57.3,775.00,1167.4
2020-05-11,14:15:00,DRY,4.25,10.35,53.0,775.00,1162.1
2020-05-11,14:20:00,DRY,5.93,9.97,58.0,774.67,1157.8
2020-05-11,14:25:00,DRY,6.25,9.90,61.0,774.50,1152.0
2020-05-11,14:30:00,DRY,4.30,9.97,56.3,775.00,1143.2
2020-05-11,14:35:00,DRY,7.70,10.15,59.5,774.50,1134.5
2020-05-11,14:40:00,DRY,7.03,10.70,48.7,774.33,1126.2
2020-05-11,14:45:00,DRY,5.10,10.00,55.5,774.00,1117.6
2020-05-11,14:50:00,DRY,5.03,9.63,55.3,774.33,1106.4
2020-05-11,14:55:00,DRY,7.65,9.25,72.0,774.00,1096.5
2020-05-11,15:00:00,DRY,7.60,9.50,64.7,774.67,1114.7
2020-05-11,15:05:00,DRY,7.40,9.05,70.5,774.00,1008.8
2020-05-11,15:10:00,DRY,4.33,8.73,72.7,774.33,1100.7
2020-05-11,15:15:00,DRY,5.15,8.70,70.5,774.50,1063.4
2020-05-11,15:20:00,DRY,4.97,8.27,75.7,774.33,929.8
2020-05-11,15:25:00,DRY,8.95,8.65,72.5,774.00,1094.8
2020-05-11,15:30:00,DRY,6.03,7.73,89.7,774.00,793.1
2020-05-11,15:35:00,DRY,6.65,7.50,88.0,774.00,713.0
2020-05-11,15:40:00,DRY,6.70,7.53,87.0,774.00,546.5
2020-05-11,15:45:00,DRY,7.85,7.40,91.5,774.00,809.4
2020-05-11,15:50:00,DRY,7.23,7.37,94.3,774.00,477.3
2020-05-11,15:55:00,DRY,6.60,7.25,93.5,774.00,649.1
2020-05-11,16:00:00,DRY,7.03,7.30,94.3,774.00,374.0
2020-05-11,16:05:00,DRY,7.25,7.30,96.5,774.00,679.5
2020-05-11,16:10:00,DRY,7.67,7.33,98.3,774.00,402.3
2020-05-11,16:15:00,DRY,6.30,7.55,99.5,774.00,529.6
2020-05-11,16:20:00,DRY,7.97,6.90,98.7,774.00,580.7
2020-05-11,16:25:00,DRY,8.40,6.80,98.5,774.00,559.5
2020-05-11,16:30:00,DRY,7.23,6.60,98.0,774.00,416.1
2020-05-11,16:35:00,DRY,6.75,6.45,99.0,774.00,571.2
2020-05-11,16:40:00,DRY,8.30,5.97,99.0,774.00,431.0
2020-05-11,16:45:00,WET,8.60,6.30,99.0,773.50,541.0
2020-05-11,16:50:00,WET,7.77,6.70,100.0,773.67,433.1
2020-05-11,16:55:00,DRY,8.70,6.40,100.0,773.50,361.1
2020-05-11,17:00:00,DRY,8.30,5.97,99.7,773.67,390.5
2020-05-11,17:05:00,DRY,7.15,6.55,100.0,774.00,521.6
2020-05-11,17:10:00,DRY,7.20,5.77,99.7,773.67,322.6
2020-05-11,17:15:00,DRY,8.10,4.90,99.0,773.50,447.7
2020-05-11,17:20:00,DRY,6.80,4.87,99.7,773.67,448.6
2020-05-11,17:25:00,DRY,5.50,4.55,97.5,774.00,463.3
2020-05-11,17:30:00,DRY,7.67,4.63,89.3,773.67,596.3
2020-05-11,17:35:00,DRY,7.10,4.45,75.0,773.50,577.7
2020-05-11,17:40:00,DRY,7.00,4.33,67.7,773.33,538.3
2020-05-11,17:45:00,DRY,8.60,4.55,55.0,773.00,510.4
2020-05-11,17:50:00,DRY,8.87,4.73,41.0,773.33,490.3
2020-05-11,17:55:00,DRY,7.80,5.25,37.0,773.00,470.9
2020-05-11,18:00:00,DRY,7.63,5.40,33.3,773.00,451.0
2020-05-11,18:05:00,DRY,7.00,5.60,28.5,773.50,427.8
2020-05-11,18:10:00,DRY,8.63,5.80,32.7,773.00,407.3
2020-05-11,18:15:00,DRY,8.60,6.05,32.0,773.00,385.9
2020-05-11,18:20:00,DRY,6.50,6.00,29.7,773.00,363.9
2020-05-11,18:25:00,DRY,7.10,6.10,13.5,773.00,342.0
2020-05-11,18:30:00,DRY,7.20,6.20,8.3,773.00,319.4
2020-05-11,18:35:00,DRY,6.85,6.10,9.0,773.00,296.8
2020-05-11,18:40:00,DRY,8.80,6.03,7.3,773.00,272.1
2020-05-11,18:45:00,DRY,9.90,5.85,7.0,773.00,248.6
2020-05-11,18:50:00,DRY,8.83,5.93,6.3,773.00,223.2
2020-05-11,18:55:00,DRY,10.40,6.00,5.5,773.00,200.9
2020-05-11,19:00:00,DRY,9.67,5.97,5.0,773.00,180.5
2020-05-11,19:05:00,DRY,9.90,6.00,5.5,773.00,160.9
2020-05-11,19:10:00,DRY,9.50,5.93,5.7,773.00,141.9
2020-05-11,19:15:00,DRY,8.00,5.95,5.5,773.00,121.5
2020-05-11,19:20:00,DRY,9.33,5.93,5.3,773.00,96.9
2020-05-11,19:25:00,DRY,7.70,5.80,5.5,773.00,73.6
2020-05-11,19:30:00,DRY,8.33,5.57,5.0,773.00,54.1
2020-05-11,19:35:00,DRY,10.30,5.20,6.0,773.00,37.8
2020-05-11,19:40:00,DRY,8.97,5.07,6.7,773.00,25.6
2020-05-11,19:45:00,DRY,11.65,4.95,7.5,773.00,17.1
2020-05-11,19:50:00,DRY,9.60,5.03,6.7,773.00,11.7
2020-05-11,19:55:00,DRY,10.75,4.80,8.5,773.00,6.9
2020-05-11,20:00:00,DRY,9.63,4.60,9.7,773.00,3.8
2020-05-11,20:05:00,DRY,9.65,4.90,9.0,773.00,2.1
2020-05-11,20:10:00,DRY,9.50,5.00,10.0,773.00,1.4
2020-05-11,20:15:00,DRY,8.15,4.60,10.0,773.00,1.1
2020-05-11,20:20:00,DRY,8.97,4.60,10.7,773.00,1.2
2020-05-11,20:25:00,DRY,9.65,4.65,10.0,773.00,1.1
2020-05-11,20:30:00,DRY,9.70,4.37,11.0,773.00,1.1
2020-05-11,20:35:00,DRY,9.25,4.45,10.0,773.00,1.2
2020-05-11,20:40:00,DRY,9.40,4.63,13.0,773.00,0.8
2020-05-11,20:45:00,DRY,10.75,5.05,13.5,773.00,1.2
2020-05-11,20:50:00,DRY,9.33,5.10,13.3,773.00,1.0
2020-05-11,20:55:00,DRY,9.30,4.80,14.0,773.00,1.2
2020-05-11,21:00:00,DRY,9.13,4.53,12.3,773.00,1.1
2020-05-11,21:05:00,DRY,9.50,3.90,16.0,773.00,1.1
2020-05-11,21:10:00,DRY,8.97,3.53,19.3,773.00,1.2
2020-05-11,21:15:00,DRY,8.15,3.80,18.0,773.00,1.1
2020-05-11,21:20:00,DRY,10.33,4.03,14.7,773.00,1.4
2020-05-11,21:25:00,DRY,8.60,4.00,14.5,773.00,1.6
2020-05-11,21:30:00,DRY,9.53,3.83,15.0,773.00,1.2
2020-05-11,21:35:00,DRY,9.80,3.65,16.5,773.00,1.4
2020-05-11,21:40:00,DRY,8.97,3.53,18.0,773.00,1.1
2020-05-11,21:45:00,DRY,7.60,3.40,20.0,773.00,1.1
2020-05-11,21:50:00,DRY,9.27,3.80,17.0,773.00,1.2
2020-05-11,21:55:00,DRY,9.00,4.25,14.5,773.00,1.2
2020-05-11,22:00:00,DRY,9.53,4.13,15.3,773.00,1.2
2020-05-11,22:05:00,DRY,8.55,4.70,14.5,773.00,1.2
2020-05-11,22:10:00,DRY,11.07,5.03,15.0,773.00,1.0
2020-05-11,22:15:00,DRY,8.65,5.65,14.0,773.00,1.0
2020-05-11,22:20:00,DRY,8.53,5.30,13.3,774.00,0.8
2020-05-11,22:25:00,DRY,8.10,5.15,13.0,773.50,1.0
2020-05-11,22:30:00,DRY,7.87,4.73,15.0,773.33,1.1
2020-05-11,22:35:00,DRY,8.00,4.25,16.0,774.00,1.2
2020-05-11,22:40:00,DRY,6.73,4.30,14.0,773.00,1.1
2020-05-11,22:45:00,DRY,7.95,4.15,15.0,773.00,1.1
2020-05-11,22:50:00,DRY,7.13,3.80,16.3,773.33,1.1
2020-05-11,22:55:00,DRY,12.20,4.20,16.0,773.00,1.6
2020-05-11,23:00:00,DRY,9.20,4.33,14.3,773.33,1.2
2020-05-11,23:05:00,DRY,7.35,4.10,16.0,773.50,1.2
2020-05-11,23:10:00,DRY,8.63,4.27,14.3,773.00,1.2
2020-05-11,23:15:00,DRY,8.85,4.25,17.5,773.00,1.4
2020-05-11,23:20:00,DRY,9.03,4.00,15.7,773.00,1.3
2020-05-11,23:25:00,DRY,8.45,4.05,17.0,773.00,1.5
2020-05-11,23:30:00,DRY,9.10,4.37,16.0,773.00,2.1
2020-05-11,23:35:00,DRY,7.90,4.30,16.0,773.00,1.3
2020-05-11,23:40:00,DRY,8.40,4.17,16.0,773.00,1.3
2020-05-11,23:45:00,DRY,7.95,4.15,16.5,773.00,1.0
2020-05-11,23:50:00,DRY,8.50,4.67,13.3,773.00,1.2
2020-05-11,23:55:00,DRY,8.55,4.80,14.0,773.00,1.1
2020-05-12,00:00:00,DRY,7.90,4.43,16.7,773.00,1.3
2020-05-12,00:05:00,DRY,6.50,4.15,20.5,773.00,1.1
2020-05-12,00:10:00,DRY,7.13,4.53,18.3,773.00,1.1
2020-05-12,00:15:00,DRY,6.90,4.30,21.0,773.00,1.1
2020-05-12,00:20:00,DRY,6.63,3.77,22.7,773.00,1.2
2020-05-12,00:25:00,DRY,7.15,4.05,20.0,773.00,1.1
2020-05-12,00:30:00,DRY,5.90,4.37,24.0,773.00,1.0
2020-05-12,00:35:00,DRY,5.70,4.20,27.5,773.00,1.3
2020-05-12,00:40:00,DRY,5.20,3.90,22.7,773.00,1.1
2020-05-12,00:45:00,DRY,3.95,3.95,19.0,773.00,0.9
2020-05-12,00:50:00,DRY,4.50,4.23,18.0,773.00,0.8
2020-05-12,00:55:00,DRY,6.75,3.85,19.0,773.00,1.2
2020-05-12,01:00:00,DRY,4.77,3.97,17.7,773.00,1.3
2020-05-12,01:05:00,DRY,3.65,3.50,18.5,772.50,1.7
2020-05-12,01:10:00,DRY,5.63,3.77,17.3,772.33,1.5
2020-05-12,01:15:00,DRY,4.85,3.85,17.5,772.00,1.1
2020-05-12,01:20:00,DRY,4.30,3.63,18.0,772.00,1.4
2020-05-12,01:25:00,DRY,5.25,3.50,20.0,772.00,1.1
2020-05-12,01:30:00,DRY,3.53,3.43,20.0,772.00,1.0
2020-05-12,01:35:00,DRY,4.50,3.10,21.0,772.00,1.9
2020-05-12,01:40:00,DRY,4.67,3.73,19.3,772.00,0.8
2020-05-12,01:45:00,DRY,4.85,3.90,20.5,772.00,1.4
2020-05-12,01:50:00,DRY,4.17,3.37,24.7,772.00,1.3
2020-05-12,01:55:00,DRY,2.55,3.40,24.5,772.00,0.9
2020-05-12,02:00:00,DRY,4.73,3.20,23.3,772.00,1.0
2020-05-12,02:05:00,DRY,3.60,3.10,25.0,772.00,1.0
2020-05-12,02:10:00,DRY,3.70,3.20,25.3,772.00,1.6
2020-05-12,02:15:00,DRY,4.95,3.65,22.5,772.00,1.0
2020-05-12,02:20:00,DRY,5.07,3.73,22.0,772.00,1.2
2020-05-12,02:25:00,DRY,4.85,3.85,20.5,772.00,1.1
2020-05-12,02:30:00,DRY,4.07,3.93,22.3,772.00,1.3
2020-05-12,02:35:00,DRY,5.40,3.10,31.5,772.00,1.4
2020-05-12,02:40:00,DRY,5.23,3.03,39.7,772.00,1.5
2020-05-12,02:45:00,DRY,5.50,3.00,46.5,772.00,1.2
2020-05-12,02:50:00,DRY,7.43,3.00,49.7,772.00,1.3
2020-05-12,02:55:00,DRY,6.30,2.65,53.0,772.00,1.2
2020-05-12,03:00:00,DRY,4.77,2.57,56.3,772.00,1.4
2020-05-12,03:05:00,DRY,3.60,2.05,70.0,772.00,1.1
2020-05-12,03:10:00,DRY,4.10,1.17,88.3,771.33,1.7
2020-05-12,03:15:00,DRY,6.45,0.95,97.5,771.00,1.7
2020-05-12,03:20:00,DRY,7.40,0.90,93.3,771.00,1.9
2020-05-12,03:25:00,DRY,7.40,1.00,98.0,771.00,3.3
2020-05-12,03:30:00,DRY,7.50,1.00,99.0,771.00,32.2
2020-05-12,03:35:00,DRY,7.35,0.90,100.0,771.00,60.5
2020-05-12,03:40:00,DRY,7.45,1.25,88.5,771.00,49.4
2020-05-12,03:45:00,DRY,7.60,1.20,93.5,771.00,42.7
2020-05-12,03:50:00,DRY,8.07,1.20,95.3,771.00,48.6
2020-05-12,03:55:00,DRY,7.15,1.25,96.5,771.00,55.2
2020-05-12,04:00:00,DRY,7.37,1.57,99.3,771.00,80.2
2020-05-12,04:05:00,DRY,8.65,2.00,100.0,771.00,96.9
2020-05-12,04:10:00,DRY,8.87,2.07,100.0,771.00,87.9
2020-05-12,04:15:00,DRY,8.65,2.10,100.0,771.00,87.2
2020-05-12,04:20:00,DRY,7.93,2.03,100.0,771.00,85.3
2020-05-12,04:25:00,DRY,8.60,2.30,100.0,771.00,94.2
2020-05-12,04:30:00,DRY,9.67,2.27,100.0,771.00,94.0
2020-05-12,04:35:00,DRY,11.70,1.25,99.0,771.00,74.9
2020-05-12,04:40:00,DRY,8.27,1.57,99.7,771.00,80.4
2020-05-12,04:45:00,DRY,8.85,1.25,98.0,771.00,71.9
2020-05-12,04:50:00,DRY,7.37,1.47,83.7,771.00,51.0
2020-05-12,04:55:00,DRY,9.10,1.30,88.5,771.00,46.1
2020-05-12,05:00:00,DRY,9.20,1.97,61.7,771.00,36.9
2020-05-12,05:05:00,DRY,8.00,2.45,50.0,771.00,29.0
2020-05-12,05:10:00,DRY,7.13,2.73,55.0,771.00,16.4
2020-05-12,05:15:00,DRY,10.75,2.40,51.0,771.00,13.3
2020-05-12,05:20:00,DRY,9.17,2.77,51.0,771.00,13.0
2020-05-12,05:25:00,DRY,8.55,2.85,52.0,771.00,13.1
2020-05-12,05:30:00,DRY,8.70,2.53,58.3,771.00,13.8
2020-05-12,05:35:00,DRY,7.45,1.85,74.0,771.00,13.2
2020-05-12,05:40:00,DRY,7.93,1.03,94.7,771.00,15.7
2020-05-12,05:45:00,DRY,8.65,1.00,98.5,771.00,38.3
2020-05-12,05:50:00,DRY,8.20,2.57,67.7,771.00,25.3
2020-05-12,05:55:00,DRY,8.65,2.25,69.5,771.00,25.5
2020-05-12,06:00:00,DRY,9.53,2.17,81.0,771.00,29.1
2020-05-12,06:05:00,DRY,8.35,1.15,97.0,771.00,58.1
2020-05-12,06:10:00,DRY,7.97,1.63,89.3,771.00,57.0
2020-05-12,06:15:00,DRY,9.95,1.90,79.5,771.00,67.2
2020-05-12,06:20:00,DRY,10.60,3.07,53.7,771.00,69.6
2020-05-12,06:25:00,DRY,9.45,3.20,51.5,771.00,71.1
2020-05-12,06:30:00,DRY,10.07,3.60,51.3,772.00,84.7
2020-05-12,06:35:00,DRY,9.10,3.70,52.5,771.50,86.2
2020-05-12,06:40:00,DRY,7.87,3.57,52.0,772.00,90.5
2020-05-12,06:45:00,DRY,7.90,3.60,55.0,772.00,108.7
2020-05-12,06:50:00,DRY,8.07,3.87,49.3,772.00,109.2
2020-05-12,06:55:00,DRY,8.50,3.90,49.0,772.00,116.8
2020-05-12,07:00:00,DRY,7.90,4.05,47.5,772.00,144.7
2020-05-12,07:05:00,DRY,10.50,4.80,42.5,772.00,186.8
2020-05-12,07:10:00,DRY,9.00,4.90,42.7,772.00,229.4
2020-05-12,07:15:00,DRY,8.75,5.15,42.5,772.00,259.2
2020-05-12,07:20:00,DRY,7.80,5.57,39.0,772.00,192.9
2020-05-12,07:25:00,DRY,9.70,5.15,41.0,772.00,202.0
2020-05-12,07:30:00,DRY,8.10,5.20,41.3,772.00,263.3
2020-05-12,07:35:00,DRY,8.10,5.75,38.0,772.00,313.6
2020-05-12,07:40:00,DRY,8.33,5.77,39.7,772.00,272.9
2020-05-12,07:45:00,DRY,9.40,5.75,38.5,772.00,271.6
2020-05-12,07:50:00,DRY,9.13,5.80,37.3,772.00,252.9
2020-05-12,07:55:00,DRY,8.40,6.15,36.5,772.00,270.7
2020-05-12,08:00:00,DRY,8.90,6.47,34.7,772.00,358.6
2020-05-12,08:05:00,DRY,9.60,7.00,32.5,772.00,405.8
2020-05-12,08:10:00,DRY,8.47,6.97,33.0,772.00,422.2
2020-05-12,08:15:00,DRY,8.10,6.90,34.5,772.50,463.1
2020-05-12,08:20:00,DRY,8.23,7.17,33.3,772.00,489.5
2020-05-12,08:25:00,DRY,7.80,7.60,32.0,772.00,517.8
2020-05-12,08:30:00,DRY,8.63,7.40,32.3,772.00,537.6
2020-05-12,08:35:00,DRY,7.65,7.50,32.5,772.50,552.7
2020-05-12,08:40:00,DRY,9.27,7.77,31.3,772.33,578.4
2020-05-12,08:45:00,DRY,7.85,7.30,34.0,773.00,601.1
2020-05-12,08:50:00,DRY,7.90,7.50,32.7,773.00,620.7
2020-05-12,08:55:00,DRY,6.30,7.60,33.5,773.00,641.9
2020-05-12,09:00:00,DRY,6.77,7.63,33.7,773.00,665.8
2020-05-12,09:05:00,DRY,8.25,7.70,34.0,773.00,690.6
2020-05-12,09:10:00,DRY,8.50,7.57,35.7,773.00,715.5
2020-05-12,09:15:00,DRY,9.25,7.95,34.0,773.00,723.6
2020-05-12,09:20:00,DRY,7.90,7.87,33.7,773.00,740.9
2020-05-12,09:25:00,DRY,9.25,8.10,33.0,773.00,762.9
2020-05-12,09:30:00,DRY,8.20,7.87,34.3,773.00,781.3
2020-05-12,09:35:00,DRY,6.75,8.00,33.5,773.00,802.5
2020-05-12,09:40:00,DRY,7.33,8.13,34.0,773.00,816.8
2020-05-12,09:45:00,DRY,8.55,8.10,35.5,773.00,830.5
2020-05-12,09:50:00,DRY,7.93,8.17,36.7,773.00,846.7
2020-05-12,09:55:00,DRY,5.95,8.15,34.0,773.00,864.2
2020-05-12,10:00:00,DRY,6.80,8.23,34.0,773.00,879.5
2020-05-12,10:05:00,DRY,6.15,8.25,36.0,773.00,893.5
2020-05-12,10:10:00,DRY,6.97,8.00,42.7,773.00,910.9
2020-05-12,10:15:00,DRY,7.10,7.85,41.0,773.00,926.2
2020-05-12,10:20:00,DRY,7.17,7.63,40.3,773.00,940.7
2020-05-12,10:25:00,DRY,7.00,8.45,35.5,773.00,956.0
2020-05-12,10:30:00,DRY,7.27,7.77,36.7,773.00,969.5
2020-05-12,10:35:00,DRY,8.60,8.55,37.0,773.00,982.9
2020-05-12,10:40:00,DRY,7.13,8.37,39.3,773.00,995.1
2020-05-12,10:45:00,DRY,8.30,8.35,41.5,773.00,1007.8
2020-05-12,10:50:00,DRY,7.30,8.23,44.7,773.00,1021.8
2020-05-12,10:55:00,DRY,8.75,8.55,39.0,773.00,1032.1
2020-05-12,11:00:00,DRY,8.70,8.40,46.7,773.00,1045.4
2020-05-12,11:05:00,DRY,6.45,9.35,36.5,773.00,1057.2
2020-05-12,11:10:00,DRY,7.63,9.80,41.7,773.00,1067.3
2020-05-12,11:15:00,DRY,6.55,8.85,42.5,773.00,1079.2
2020-05-12,11:20:00,DRY,6.80,9.67,39.3,773.00,1087.4
2020-05-12,11:25:00,DRY,7.95,9.60,43.0,773.00,1097.7
2020-05-12,11:30:00,DRY,8.50,9.80,39.0,773.00,1106.0
2020-05-12,11:35:00,DRY,6.65,9.30,41.0,773.00,1114.8
2020-05-12,11:40:00,DRY,8.30,9.30,37.3,773.00,1124.2
2020-05-12,11:45:00,DRY,7.35,9.65,49.0,773.00,1131.0
2020-05-12,11:50:00,DRY,7.53,9.60,45.3,773.00,1140.1
2020-05-12,11:55:00,DRY,5.90,9.55,37.5,773.00,1147.5
2020-05-12,12:00:00,DRY,6.17,9.13,41.3,773.00,1152.3
2020-05-12,12:05:00,DRY,7.30,8.65,58.0,773.00,1156.7
2020-05-12,12:10:00,DRY,10.47,9.57,44.3,773.00,1163.1
2020-05-12,12:15:00,DRY,9.80,9.70,43.0,773.00,1167.6
2020-05-12,12:20:00,DRY,6.63,9.37,47.7,773.00,1170.8
2020-05-12,12:25:00,DRY,9.20,9.55,49.5,773.00,1175.5
2020-05-12,12:30:00,DRY,7.73,9.43,43.3,773.00,1177.5
2020-05-12,12:35:00,DRY,6.65,9.10,47.5,773.00,1179.4
2020-05-12,12:40:00,DRY,8.40,9.07,46.7,773.00,1181.5
2020-05-12,12:45:00,DRY,8.85,8.95,43.5,773.00,1181.7